Regional Weather Roundup
Issued by NWS

Home | Current Version | Previous Version | Text Only | Print | Product List | Glossary On
Versions: 1 2 3 4 5 6 7 8 9 10 11 12 13 14 15 16 17 18 19 20 21 22 23 24 25 26 27 28 29 30 31 32 33 34 35 36 37 38 39 40 41 42 43 44 45 46 47 48 49 50
510
ASUS44 KLIX 280813
RWRLA
LOUISIANA WEATHER ROUNDUP
NATIONAL WEATHER SERVICE NEW ORLEANS LA
300 AM CDT TUE MAR 28 2017

NOTE: "FAIR" INDICATES FEW OR NO CLOUDS BELOW 12,000 FEET WITH NO
      SIGNIFICANT WEATHER AND/OR OBSTRUCTIONS TO VISIBILITY.
      SKY/WX - SKY CONDITION AND SIGNIFICANT WEATHER.
      TMP - AIR TEMPERATURE.    DP   - DEWPOINT TEMPERATURE.
      RH  - RELATIVE HUMIDITY.  PRES - PRESSURE.
      HX  - HEAT INDEX.         WCI  - WIND CHILL INDEX.

*  THESE STATIONS ARE NOT NWS OR FAA STATIONS AND ARE NOT UNDER
   NWS QUALITY CONTROL.

LAZ040-048-061>063-065-066-069-280900-
SOUTHEAST LOUISIANA

CITY           SKY/WX    TMP DP  RH WIND       PRES   REMARKS
N.O. INTL ARPT MOCLDY    70  69  97 S5        29.94F
N.O. LAKEFRONT CLOUDY    71  69  93 S5        29.95F
N.O. DOWNTOWN*   N/A     73  69  87 S6        29.95F
RESERVE*       PTSUNNY   71  69  93 S3        29.94F
SLIDELL        CLOUDY    72  70  93 S3        29.95S
BATON ROUGE    CLOUDY    70  68  93 S6        29.93F FOG
BOOTHVILLE     CLEAR     72  72 100 S9        29.96F
BELLE CHASSE   PTCLDY   N/A N/A N/A S6        29.94F
BOGALUSA*      NOT AVBL
GALLIANO*      CLOUDY    71  68  89 S5        29.95S
NEW ROADS*       N/A     68  67  99 S5        29.94S FOG
GONZALES*      CLOUDY    67  67 100 CALM      29.93F FOG
HAMMOND*       CLEAR     68  64  88 CALM      29.94F FOG
HOUMA*         PTCLDY    72  69  90 S8        29.94F
PORT FOURCHON* MOSUNNY   73  70  88 S10       29.94F

$$

LAZ041-044-053-054-280900-
SOUTHWEST LOUISIANA

CITY           SKY/WX    TMP DP  RH WIND       PRES   REMARKS
LAKE CHARLES   CLOUDY    72  70  93 S7        29.91S FOG
LAFAYETTE      MOCLDY    73  70  90 S5        29.93S
PATTERSON      MOCLDY    69  69 100 S3        29.94F
SALT POINT       N/A     71  69  93 VRB3      29.92F
NEW IBERIA     CLOUDY    72  68  87 S6        29.93S
CHENAULT AIRPK CLOUDY    72  70  96 S7        29.92S

$$

LAZ027-028-280900-
CENTRAL LOUISIANA

CITY           SKY/WX    TMP DP  RH WIND       PRES   REMARKS
FORT POLK      CLOUDY    70  70 100 S6        29.91S
ALEXANDRIA INT CLOUDY    70  68  93 S6        29.91R
ALEXANDRIA     CLOUDY    69  68  96 CALM      29.92S

$$

LAZ001-002-280900-
NORTHWEST LOUISIANA

CITY           SKY/WX    TMP DP  RH WIND       PRES   REMARKS
SHREVEPORT     CLOUDY    70  63  78 CALM      29.90S
BARKSDALE AFB  CLOUDY    68  63  84 CALM      29.90S
DTN SHREVEPORT CLOUDY    68  62  81 NW3       29.90S

$$

LAZ014-016-280900-
NORTHEAST LOUISIANA

CITY           SKY/WX    TMP DP  RH WIND       PRES   REMARKS
MONROE         CLOUDY    68  65  90 SW6       29.92R
TALLULAH       MOCLDY    66  63  90 S5        29.92S

$$





USA.gov is the U.S. government's official web portal to all federal, state and local government web resources and services.